STARLINK-1146 (45094 NORAD) Tracking and Keplerian Element Data

This shows tracking and keplerian element data for the satellite.

Feedback or suggestion? Click here.




ElementValue
Catalog45094
NameSTARLINK-1146
Epoch Orbit325
Epoch Day47.91667824
Epoch Year2020
RAAN144.3843
Inclination52.9971
Eccentricity0.0001979
Argument of Perigee315.7472
Mean Anonmoly292.3232
Mean Motion15.73213229
Decay Rate0.00209101
L11 45094U 20006BC 20047.91667824 .00209101 00000-0 14563-2 0 9990
L22 45094 52.9971 144.3843 0001979 315.7472 292.3232 15.73213229 3257

Live tracking and technical data element details for STARLINK-1146 (NORAD 45094). STARLINK-1146 can be tracked NOW for your location showing map with azimuth and elevation plus other details from your city location.

Track the satellite on the map from your city or location and see movement details for azimuth, elevation, latitude, longitude, range, height, and movement on the map or in text.







IsCatalogInMostPopularTable: catalog: 45094, numindb: -1

Insert: records affected: 1


GetName: 45094 STARLINK-1146

Hit Count: inserted at: Tue, 18 Feb 2020 00:09:52 GMT